{"data":{"norad_id":68514,"intl_designator":"2026-068G","name":"STARLINK-37251","alt_names":[],"object_type":"PAYLOAD","status":"ACTIVE","operator":null,"country":"US","launch_date":"2026-03-30","launch_site_code":"AFETR","launch_vehicle":null,"mission":null,"orbit_class":"UNKNOWN","rcs_meters":null,"size_class":null,"mass_kg":null,"dimensions":null,"purposes":["comms"],"wikipedia_slug":null,"has_3d_model":false,"image_url":null,"decayed_at":null,"tle_current":{"epoch":"2026-09-19T20:18:58.191840Z","epoch_age_seconds":104134,"freshness":"FRESH","line1":"1 68514U 26068G   26262.84650685  .00013905  00000+0  42182-3 0  9993","line2":"2 68514  53.1606 303.0176 0000943  79.4789 280.6319 15.34406744 26732","mean_motion":15.34406744,"eccentricity":9.43e-5,"inclination_deg":53.1606,"raan_deg":303.0176,"arg_perigee_deg":79.4789,"mean_anomaly_deg":280.6319,"bstar":0.00042182,"rev_number":2673,"period_min":93.847345603168,"perigee_km":462.03810634683,"apogee_km":463.32828503574,"semimajor_km":6840.8201956913,"source":"CELESTRAK","updated_at":"2026-09-20T09:00:43.902374Z"}}}